Regional Weather Roundup
Issued by NWS Midland/Odessa, TX

Current Version | Previous Version | Text Only | Print | Product List | Glossary On
Versions: 1 2 3 4 5 6 7 8 9 10 11 12 13 14 15 16 17 18 19 20 21 22 23 24 25 26 27 28 29 30 31 32 33 34 35 36 37 38 39 40 41 42 43 44 45 46 47 48 49 50
000
ASUS44 KMAF 152110
RWRMAF
MIDLAND AREA WEATHER ROUNDUP
NATIONAL WEATHER SERVICE MIDLAND TX
300 PM CST SAT DEC 15 2018

...IN SOUTHWEST TEXAS AND SOUTHEAST NEW MEXICO...

CITY           SKY/WX    TMP DP  RH WIND       PRES   REMARKS
ALPINE         CLOUDY    64 -10   5 S9        30.28F
ANDREWS        FAIR      64   7  11 W16       30.19S
ARTESIA        SUNNY     57  32  38 SE10      30.16
BIG SPRING     SUNNY     62  27  26 S12G17    30.20F
CARLSBAD       SUNNY     58  26  29 SE6       30.16F
DRYDEN           N/A     64  19  17 SW18      30.20F
FORT STOCKTON  SUNNY     66   6   9 SW10      30.20F
GUAD PASS      NOT AVBL
HOBBS          SUNNY     63   1   8 S17       30.18F
LAMESA         NOT AVBL
MARFA          NOT AVBL
MIDLAND AIRPK    N/A     66  19  17 SW12      30.19F
MIDLAND INTL   SUNNY     64  14  14 SW13      30.19F
ODESSA         SUNNY     63   7  11 SW15      30.20F
PECOS          SUNNY     61  13  15 CALM      30.19F
PRESIDIO       FAIR      55  19  24 CALM      30.28F
SEMINOLE       SUNNY     64   6  10 SW18      30.22S
SNYDER         SUNNY     60  23  24 S12       30.17F
WINK           SUNNY     64   7  10 SW6       30.18F
$$
...OTHER STATIONS IN TEXAS...

CITY           SKY/WX    TMP DP  RH WIND       PRES   REMARKS
ABILENE        SUNNY     63  23  21 CALM      30.18F
AMARILLO       SUNNY     67  10  11 W12       30.04F
AUSTIN         MOSUNNY   69  17  13 N7        30.17F
BROWNSVILLE    FAIR      72  39  30 NW12      30.20F
CORPUS CHRISTI MOSUNNY   70  29  21 NW9       30.19S
DALLAS FTW     MOSUNNY   59  21  23 NW8       30.14S
DEL RIO        SUNNY     67  24  19 W6        30.21F
EL PASO        PTSUNNY   54  11  18 N5        30.22F
HOUSTON INT    SUNNY     64  38  38 W12       30.12S
LUBBOCK        CLOUDY    64  22  20 SW18      30.12F
SAN ANGELO     SUNNY     67  22  18 W6        30.19F
SAN ANTONIO    MOSUNNY   71  13  10 N9        30.19F
WACO           SUNNY     63  22  20 N8        30.16F
WICHITA FALLS  MOSUNNY   55  10  16 S5        30.13R
$$
...OTHER LOCATIONS IN NEW MEXICO...

CITY           SKY/WX    TMP DP  RH WIND       PRES   REMARKS
ALAMOGORDO     SUNNY     54  10  17 CALM      30.25
ALBUQUERQUE    PTSUNNY   45  12  26 CALM      30.25F
CANNON AFB     PTSUNNY   63   3   9 W24       30.13
CLOVIS         PTSUNNY   64   5   9 W18G25    30.12F
HOLLOMAN AFB   MOSUNNY   53  15  22 S5        30.26
ROSWELL        SUNNY     55  30  38 CALM      30.15F
RUIDOSO        MOSUNNY   54  -8   8 SW12      30.25
SANTA FE       MOSUNNY   48  10  21 SW9       30.23F
TRUTH OR CONSE CLOUDY    50   8  18 CALM      30.23F
TUCUMCARI      PTSUNNY   65  11  12 SW15      30.04F
$$




USA.gov is the U.S. government's official web portal to all federal, state and local government web resources and services.